Volver al catálogo

SKYMED 1

ActivoCienciaSSO
NORAD 31598·PAYLOAD·🇮🇹 Italy

Lanzado Jun 8, 2007 desde Vandenberg Space Force Base

Loading…

Próximos Pases (próximas 24 horas)

TLE

ActualizadoSource: Space-Track

Época: Sep 14, 2026, 22:52 UTC

1 31598U 07023A   26257.95315334  .00002436  00000-0  21444-3 0  9996
2 31598  97.8836  90.5880 0001739  90.1911 269.9510 14.97445732 43229

Sigue SKYMED 1 en tiempo real con AllMySat

Download on the App Store